www.pogodaiklimat.ru

Погода и климат >> Архив погоды >> Украина >> Новая Ушица


ПОГОДА в Новой Ушице

  • Прогноз погоды в Новой Ушице
  • Монитор погоды в Новой Ушице
  • Климат города

АРХИВ ПОГОДЫ в Новой Ушице

Время (UTC), дата Ветер
(напр.,м/с)
 
Видим.   Явления Облачность Т
(С)
Тd
(С)
f
(%)
Тe
(С)
Тes
(С)
Комфортность P
(гПа)
Po
(гПа)
Тmin
(С)
Tmax
(С)
R
(мм)
R24
(мм)
S
(см)
06 14.02 В 2 4100 м слабый ливневой снег 10/10 300 м
[Cb cap]
-2.5 -3.1 96 -7 -7 1017.6 1018.0 -2.6 1 14
09 14.02 В 2 4200 м слабый ливневой снег 10 баллов -2.1 -3.4 91 0.0
12 14.02 В 2 11 км слабый ливневой снег 10/8 600 м
[Cb cap Ac As]
-1.2 -3.5 84 -5 -5 1018.9 1019.0 0.5
15 14.02 В 3 19 км 10 баллов -1.5 -3.8 84 0.0
18 14.02 В 3 н/о слабый ливневой снег 10/10 300 м
[Cb cap]
-2.9 -4.2 91 -8 -8 1020.9 1021.0 -0.8 1
21 14.02 СВ 1 н/о 10 баллов -3.5 -4.9 90 0.0
00 15.02 В 1 н/о {ливн. осадки} 10/0
[Ac As]
-4.6 -6.2 89 -7 -7 1022.1 1022.0 0.0
03 15.02 В 2 н/о 10 баллов -4.9 -6.6 88 0.0
06 15.02 СВ 1 4900 м слабый ливневой снег 10/6 300 м
[Cb cap Ac As]
-4.6 -5.5 93 -7 -7 1023.6 1024.0 -5.1 0.5 15
09 15.02 СВ 2 4000 м слабый ливневой снег 10 баллов -2.3 -4.2 87 0.0
12 15.02 С 2 4500 м слабый снег {ливн. осадки} 10/0
[As op]
-0.9 -3.4 83 -5 -4 1024.4 1024.0 1.0
15 15.02 СВ 2 н/о в посл. час снег 10 баллов -1.1 -2.7 89 0.0
18 15.02 СВ 1 н/о дымка {снег} 10/10 600 м
[Sc]
-1.5 -3.2 88 -4 -4 1026.7 1027.0 -0.3 2
21 15.02 СВ 2 н/о дымка 10 баллов -1.5 -2.9 90 0.0
00 16.02 штиль 0 н/о дымка 10/10 600 м
[Sc]
-1.3 -2.3 93 -3 -3 1027.1 1027.0
03 16.02 штиль 0 дымка 10 баллов 93 513.6 990.7
06 16.02 В 1 1000 м дымка 10/10 600 м
[Sc]
-1.3 -1.8 96 -4 -4 1026.7 1027.0 -1.6 16
09 16.02 Ю 1 800 м туман ?/? -0.5 -0.6 99 -3 -3 1026.6 1027.0
12 16.02 Ю 2 22 км 10 баллов +1.0 -1.6 83 1368.6
15 16.02 Ю 1 30 км 9/9 600 м
[Sc]
+0.5 -2.0 83 -1 -1 1025.3 1025.0
18 16.02 З 2 н/о 10/5 600 м
[Sc Ac und]
+0.1 -1.3 90 -4 -4 1026.2 1026.0 +1.0
21 16.02 З 3 н/о 9/6 600 м
[Sc Ac und Ci fib]
-0.9 -1.9 93 -6 -6 1026.4 1026.0
00 17.02 З 2 н/о 9/3 600 м
[Sc Ac und Ci fib]
-1.5 -2.6 92 -5 -5 1026.6 1027.0
03 17.02 З 3 10 баллов 89 1029.8 990.7
06 17.02 З 3 24 км {снег} 9/5 600 м
[Sc Ac und]
-0.7 -1.9 92 -6 -6 1027.0 1027.0 -1.9 0.0 14
09 17.02 З 3 23 км 6/0
[Ci fib]
+0.9 -4.0 70 -3 0 1026.8 1027.0
12 17.02 З 2 35 км 4/0
[Ci fib]
+2.3 -5.6 56 -0 +4 1025.7 1026.0
15 17.02 З 3 40 км 4/0
[Ci fib]
+1.3 -6.1 58 -3 -3 1024.5 1025.0
18 17.02 ЮЗ 1 н/о ясно -1.7 -5.1 78 -4 -4 1024.8 1025.0 +2.4
21 17.02 ЮЗ 1 н/о ясно -4.2 -6.5 84 -6 -6 1024.5 1025.0
00 18.02 штиль 0 н/о 6/0
[Ci fib]
-5.0 -6.7 88 -6 -6 1024.7 1025.0
03 18.02 штиль 0 н/о 6 баллов -4.9 -6.6 88 -6 -6 1027.8 990.7
06 18.02 штиль 0 35 км 9/0
[Ac trans Ci fib]
-5.3 -6.7 90 -6 -6 1024.0 1024.0 -5.7 13
09 18.02 ЮЗ 2 45 км 9/0
[Ac trans]
-0.8 -3.9 79 -4 -2 1023.4 989.8
12 18.02 ЮЗ 1 55 км 9/0
[Ac cuf Ci fib]
+1.5 -3.5 69 0 +3 1022.7 1023.0
15 18.02 З 1 н/о 8 баллов +0.9 -3.9 70 -1 -1 1027.1 990.7
18 18.02 СЗ 1 н/о 8 баллов -0.8 -3.0 85 -3 -3 1028.6 992.0
21 18.02 С 2 н/о 10/10 600 м
[Sc]
-1.4 -3.7 84 -5 -5 1025.6 1026.0
00 19.02 С 1 н/о {снег} 8/8 600 м
[Sc]
-4.2 -6.8 82 -6 -6 1026.8 1027.0 0.0
03 19.02 С 2 н/о 9 баллов -3.7 -7.6 74 -8 -8 -342.6 993.3
06 19.02 С 2 35 км 10/10 600 м
[Sc]
-3.9 -6.8 80 -8 -8 1027.6 1028.0 -4.3 0.0 13
09 19.02 С 2 50 км 9/3 600 м
[Sc Ac und]
-2.3 -6.6 72 -6 -5 1027.8 1028.0
12 19.02 СЗ 2 60 км 4/0
[Ac cuf Ci fib]
-1.3 -8.5 58 -5 -1 1027.0 1027.0
15 19.02 З 1 >70 км 3/0
[Ci fib]
-1.6 -8.0 62 -3 -3 1026.7 1027.0
18 19.02 СЗ 1 н/о ясно -5.0 -9.0 73 -7 -7 1027.3 1027.0 -0.3
21 19.02 С 1 н/о ясно -8.0 -10.7 81 -10 -10 1027.1 1027.0
00 20.02 штиль 0 н/о ясно -9.7 -10.9 91 -10 -10 1027.4 1027.0
03 20.02 штиль 0 н/о дымка ясно -11.7 -12.5 94 0.0
06 20.02 штиль 0 14 км 8/0
[Ci fib]
-11.1 -12.0 93 -11 -11 1027.0 1027.0 -11.8 12
09 20.02 В 2 18 км 8/0
[Ci fib]
-3.7 -8.1 71 -8 -3 1025.9 1026.0
12 20.02 ЮВ 3 28 км 8/0
[Ci fib]
-1.0 -7.6 61 -5 -2 2391.3 1024.0
15 20.02 В 3 29 км 9/0
[Ci fib]
-1.7 -8.1 62 -6 -6 1023.6 1024.0
18 20.02 СВ 2 н/о 9 баллов -4.2 -8.3 73 0.0 -0.3
21 20.02 В 2 н/о 9/0
[Ac trans Ci fib]
-4.1 -8.2 73 -8 -8 1023.6 1024.0
00 21.02 В 3 н/о 10 баллов -3.9 -7.7 75 0.0

 

Местоположение метеостанции Новая Ушица (Хмельницкая область, Украина): широта 48.85 долгота 27.27 высота над уровнем моря 290 м.

В архиве по умолчанию представлена погода в Новой Ушице за последнюю неделю. Архивные данные за месяц целиком и за предыдущие месяцы, начиная с января 2011 года, Вы можете получить, выбрав интересующий диапазон дат из раскрывающегося списка и нажав кнопку "Ввод!".

Внимание! Время в таблицах - всемирное. Для получения местного времени необходимо прибавить поправку, которая в Новой Ушице равна 2 ч.

Смотрите также архив погоды в соседних городах и на ближайших метеорологических станциях:

Погода в Новоднестровске (Черновицкая область, Украина) (34 км)
Погода в Каменец-Подольском (Хмельницкая область, Украина) (49 км)
Погода в Бричанах (Молдова) (57 км)
Погода в Могилев-Подольском (Винницкая область, Украина) (58 км)
Погода в Хмельнике (Винницкая область, Украина) (58 км)
Погода в Жмеринке (Винницкая область, Украина) (65 км)
Погода в Хмельницком (Хмельницкая область, Украина) (68 км)
Погода в Darabani (Румыния) (88 км)
Погода в Сороках (Молдова) (105 км)
Погода в Виннице (Винницкая область, Украина) (106 км)

Пояснения к столбцам:

Ветер - указаны скорость ветра в м/с - средняя за 10 мин, порывы в срок и между сроками (в фигурных скобках) и направление, откуда дует ветер: С - северный, СВ - северо-восточный, В - восточный, ЮВ - юго-восточный, Ю - южный, ЮЗ - юго-западный, З - западный, СЗ - северо-западный.
Видимость - горизонтальная дальность видимости в метрах или километрах. При видимости от 1 до 10 км при отсутствии осадков обычно наблюдается дымка, при ухудшении видимости до 1 км и менее - туман. В сухую погоду видимость может ухудшаться дымом, пылью или мглою.
Явления - указаны атмосферные явления, наблюдавшиеся в срок или в последний час перед сроком; фигурными скобками обозначены явления, наблюдавшиеся между сроками (за 1-3 часа до срока); квадратными скобками обозначены град или гололедные отложения с указанием их диаметра в мм.
Облачность - указаны через наклонную черту общая и нижняя облачность в баллах и высота нижней границы облаков в метрах; квадратными скобками обозначены формы облаков: Ci - перистые, Cs - перисто-слоистые, Cc - перисто-кучевые, Ac - высококучевые, As - высокослоистые, Sc - слоисто-кучевые, Ns - слоисто-дождевые, Cu - кучевые, Cb - кучево-дождевые. Подробнее классификацию облаков см. в Атласе облаков (PDF).
T - Температура воздуха - температура, измеренная на высоте 2 м над землей.
Td - Температура точки росы - температура, при понижении до которой содержащийся в воздухе водяной пар достигнет насыщения.
f - Относительная влажность воздуха - влажноcть воздуха, измеренная на высоте 2 м над землей.
Te - Эффективная температура - температура, которую ощущает одетый по сезону человек в тени. Характеристика душности погоды. При расчете учитывается влияние влажности воздуха и скорости ветра на теплоощущения человека.
Tes - Эффективная температура на солнце - температура, которую ощущает человек, с поправкой на солнечный нагрев. Характеристика знойности погоды. Зависит от высоты солнца над горизонтом, облачности и скорости ветра. Ночью, в пасмурную погоду, а также при ветре 12 м/с и более поправка равна нулю.
P - Атмосферное давление - приведенное к уровню моря атмосферное давление.
Po - Атмосферное давление - измеренное на уровне метеостанции атмосферное давление.
Tmin - Минимальная температура - минимум температуры воздуха на высоте 2 м над землей.
Tmax - Максимальная температура - максимум температуры воздуха на высоте 2 м над землей.
R - Количество осадков - Количество выпавших осадков за период времени, мм. При наведении курсора мыши на число - период времени, за который выпало указанное количество осадков.
R24 - Количество осадков - Количество выпавших осадков за 24 часа, мм.
S - Снежный покров - Высота снежного покрова, см. При наведении курсора мыши на число - состояние снежного покрова и степень покрытия местности в баллах.